Вернуться в каталог

STARLINK-1321

АктивенСвязьVLEO
NORAD 45573·PAYLOAD·🇺🇸 United States

Запущен Apr 22, 2020 с Cape Canaveral Space Force Station

Loading…

Ближайшие Пролёты (ближайшие 24 часа)

TLE

СвежийSource: CelesTrak SupGP

Эпоха: Sep 14, 2026, 21:16 UTC

1 45573C 20025AU  26257.88659722  .00102630  00000+0  50364-3 0  2571
2 45573  53.0340 209.2313 0006081  72.8679  47.0599 15.81434589    18

Отслеживайте STARLINK-1321 в реальном времени с AllMySat

Download on the App Store